Photometre #848[NE_1.6_Dp] Watnall_MO AOT

File : 20220923_848.hum

23/09/2022,06:51:32,TEMP=12.4,BA=5.68,STAT.A,ExtBa=12.40
23/09/2022,06:55:51,TEMP=12.6,BA=5.68,STAT.A,ExtBa=12.30
23/09/2022,07:00:54,TEMP=12.7,BA=5.68,STAT.A,ExtBa=12.30
23/09/2022,07:06:55,TEMP=12.8,BA=5.68,STAT.A,ExtBa=12.30
23/09/2022,07:14:12,TEMP=12.9,BA=5.68,STAT.A,ExtBa=12.30
23/09/2022,07:23:13,TEMP=13.0,BA=5.68,STAT.A,ExtBa=12.30
23/09/2022,07:34:41,TEMP=13.1,BA=5.68,STAT.B,ExtBa=12.30
23/09/2022,07:43:21,TEMP=13.7,BA=5.52,STAT.A,ExtBa=12.20
23/09/2022,07:46:25,TEMP=13.6,BA=5.52,STAT.A,ExtBa=12.20
23/09/2022,07:51:23,TEMP=13.8,BA=5.68,STAT.D,ExtBa=12.20
23/09/2022,07:53:29,TEMP=14.4,BA=5.68,STAT.A,ExtBa=12.20
23/09/2022,07:57:23,TEMP=14.5,BA=5.68,STAT.D,ExtBa=12.20
23/09/2022,08:00:23,TEMP=14.8,BA=5.68,STAT.D,ExtBa=12.20
23/09/2022,08:02:27,TEMP=15.3,BA=5.68,STAT.A,ExtBa=12.20
23/09/2022,08:06:23,TEMP=15.3,BA=5.68,STAT.D,ExtBa=12.20
23/09/2022,08:09:23,TEMP=15.6,BA=5.68,STAT.D,ExtBa=12.20
23/09/2022,08:11:25,TEMP=16.1,BA=5.52,STAT.C,ExtBa=12.20
23/09/2022,08:37:16,TEMP=17.5,BA=5.48,STAT.A,ExtBa=12.10
23/09/2022,08:44:51,TEMP=16.8,BA=5.48,STAT.A,ExtBa=12.20
23/09/2022,08:48:23,TEMP=17.0,BA=5.48,STAT.D,ExtBa=12.20
23/09/2022,08:51:22,TEMP=17.3,BA=5.48,STAT.A,ExtBa=12.20
23/09/2022,08:54:23,TEMP=17.6,BA=5.48,STAT.D,ExtBa=12.20
23/09/2022,08:57:23,TEMP=17.7,BA=5.48,STAT.D,ExtBa=12.20
23/09/2022,08:59:28,TEMP=18.0,BA=5.48,STAT.F,ExtBa=12.20
23/09/2022,09:23:49,TEMP=19.2,BA=5.44,STAT.D,ExtBa=12.10
23/09/2022,09:27:23,TEMP=19.0,BA=5.44,STAT.D,ExtBa=12.20
23/09/2022,09:29:25,TEMP=19.3,BA=5.44,STAT.D,ExtBa=12.10
23/09/2022,09:33:23,TEMP=19.0,BA=5.44,STAT.D,ExtBa=12.20
23/09/2022,09:36:23,TEMP=19.2,BA=5.44,STAT.D,ExtBa=12.20
23/09/2022,09:39:23,TEMP=19.4,BA=5.44,STAT.D,ExtBa=12.10
23/09/2022,09:42:23,TEMP=19.5,BA=5.44,STAT.D,ExtBa=12.10
23/09/2022,09:44:29,TEMP=19.8,BA=5.44,STAT.D,ExtBa=12.10
23/09/2022,09:48:24,TEMP=19.4,BA=5.44,STAT.D,ExtBa=12.10
23/09/2022,09:51:24,TEMP=19.5,BA=5.48,STAT.D,ExtBa=12.10
23/09/2022,09:54:24,TEMP=19.7,BA=5.48,STAT.D,ExtBa=12.10
23/09/2022,09:57:23,TEMP=19.8,BA=5.48,STAT.D,ExtBa=12.10
23/09/2022,09:59:37,TEMP=20.1,BA=5.48,STAT.F,ExtBa=12.10
23/09/2022,10:24:55,TEMP=21.2,BA=5.44,STAT.D,ExtBa=12.10
23/09/2022,10:31:20,TEMP=21.2,BA=5.44,STAT.D,ExtBa=12.20
23/09/2022,10:33:18,TEMP=21.6,BA=5.44,STAT.D,ExtBa=12.10
23/09/2022,10:36:24,TEMP=21.5,BA=5.44,STAT.D,ExtBa=12.10
23/09/2022,10:39:24,TEMP=21.4,BA=5.44,STAT.D,ExtBa=12.10
23/09/2022,10:42:24,TEMP=21.4,BA=5.44,STAT.D,ExtBa=12.10
23/09/2022,10:44:22,TEMP=21.6,BA=5.44,STAT.D,ExtBa=12.10
23/09/2022,10:48:24,TEMP=21.2,BA=5.44,STAT.D,ExtBa=12.20
23/09/2022,10:51:24,TEMP=21.3,BA=5.44,STAT.D,ExtBa=12.10
23/09/2022,10:54:24,TEMP=21.4,BA=5.44,STAT.D,ExtBa=12.10
23/09/2022,10:57:24,TEMP=21.5,BA=5.44,STAT.D,ExtBa=12.10
23/09/2022,10:59:24,TEMP=21.9,BA=5.44,STAT.F,ExtBa=12.10
23/09/2022,11:23:51,TEMP=22.6,BA=5.40,STAT.D,ExtBa=12.10
23/09/2022,11:28:08,TEMP=21.7,BA=5.40,STAT.D,ExtBa=12.10
23/09/2022,11:30:24,TEMP=22.0,BA=5.44,STAT.D,ExtBa=12.10
23/09/2022,11:33:24,TEMP=21.9,BA=5.44,STAT.D,ExtBa=12.10
23/09/2022,11:36:24,TEMP=22.0,BA=5.44,STAT.D,ExtBa=12.10
23/09/2022,11:39:24,TEMP=22.1,BA=5.44,STAT.D,ExtBa=12.10
23/09/2022,11:42:24,TEMP=22.3,BA=5.40,STAT.D,ExtBa=12.10
23/09/2022,11:45:14,TEMP=22.7,BA=5.40,STAT.D,ExtBa=12.10
23/09/2022,11:48:24,TEMP=22.5,BA=5.40,STAT.D,ExtBa=12.10
23/09/2022,11:51:24,TEMP=22.8,BA=5.40,STAT.D,ExtBa=12.10
23/09/2022,11:54:24,TEMP=22.6,BA=5.40,STAT.D,ExtBa=12.10
23/09/2022,11:57:24,TEMP=22.5,BA=5.40,STAT.D,ExtBa=12.10
23/09/2022,11:59:22,TEMP=22.6,BA=5.40,STAT.F,ExtBa=12.10
23/09/2022,12:24:05,TEMP=23.4,BA=5.36,STAT.D,ExtBa=12.10
23/09/2022,12:27:24,TEMP=23.3,BA=5.36,STAT.D,ExtBa=12.10
23/09/2022,12:29:23,TEMP=23.6,BA=5.36,STAT.D,ExtBa=12.10
23/09/2022,12:42:24,TEMP=22.8,BA=5.52,STAT.D,ExtBa=12.20
23/09/2022,12:44:21,TEMP=23.3,BA=5.52,STAT.D,ExtBa=12.10
23/09/2022,12:48:24,TEMP=23.1,BA=5.52,STAT.D,ExtBa=12.20
23/09/2022,12:51:24,TEMP=23.1,BA=5.40,STAT.D,ExtBa=12.20
23/09/2022,12:58:09,TEMP=22.3,BA=5.40,STAT.F,ExtBa=12.20
23/09/2022,13:09:24,TEMP=23.0,BA=5.44,STAT.D,ExtBa=12.20
23/09/2022,13:12:24,TEMP=23.4,BA=5.40,STAT.D,ExtBa=12.20
23/09/2022,13:14:23,TEMP=23.6,BA=5.40,STAT.D,ExtBa=12.10
23/09/2022,13:18:24,TEMP=22.8,BA=5.40,STAT.D,ExtBa=12.20
23/09/2022,13:28:07,TEMP=22.5,BA=5.40,STAT.D,ExtBa=12.20
23/09/2022,13:30:24,TEMP=22.9,BA=5.40,STAT.D,ExtBa=12.20
23/09/2022,13:33:24,TEMP=22.9,BA=5.40,STAT.D,ExtBa=12.20
23/09/2022,13:36:24,TEMP=23.0,BA=5.40,STAT.D,ExtBa=12.20
23/09/2022,13:39:24,TEMP=23.0,BA=5.40,STAT.D,ExtBa=12.20
23/09/2022,13:42:23,TEMP=23.1,BA=5.36,STAT.D,ExtBa=12.10
23/09/2022,13:44:22,TEMP=23.4,BA=5.36,STAT.D,ExtBa=12.10
23/09/2022,13:48:23,TEMP=22.9,BA=5.36,STAT.D,ExtBa=12.20
23/09/2022,13:58:09,TEMP=22.4,BA=5.36,STAT.F,ExtBa=12.20
23/09/2022,14:22:18,TEMP=23.9,BA=5.36,STAT.D,ExtBa=12.10
23/09/2022,14:28:07,TEMP=22.4,BA=5.36,STAT.D,ExtBa=12.20
23/09/2022,14:39:23,TEMP=21.6,BA=5.40,STAT.D,ExtBa=12.20
23/09/2022,14:42:23,TEMP=21.7,BA=5.36,STAT.D,ExtBa=12.20
23/09/2022,14:44:22,TEMP=21.9,BA=5.36,STAT.D,ExtBa=12.20
23/09/2022,14:48:23,TEMP=21.3,BA=5.36,STAT.D,ExtBa=12.20
23/09/2022,14:58:09,TEMP=20.3,BA=5.40,STAT.F,ExtBa=12.20
23/09/2022,15:08:20,TEMP=20.7,BA=5.36,STAT.A,ExtBa=12.10
23/09/2022,15:21:10,TEMP=19.4,BA=5.48,STAT.A,ExtBa=12.20
23/09/2022,15:24:23,TEMP=20.0,BA=5.48,STAT.D,ExtBa=12.20
23/09/2022,15:27:23,TEMP=20.4,BA=5.48,STAT.D,ExtBa=12.20
23/09/2022,15:30:23,TEMP=20.8,BA=5.48,STAT.D,ExtBa=12.10
23/09/2022,15:33:23,TEMP=21.1,BA=5.48,STAT.D,ExtBa=12.20
23/09/2022,15:35:24,TEMP=21.6,BA=5.48,STAT.A,ExtBa=12.10
23/09/2022,15:39:23,TEMP=21.4,BA=5.48,STAT.D,ExtBa=12.10
23/09/2022,15:42:23,TEMP=21.5,BA=5.36,STAT.D,ExtBa=12.20
23/09/2022,15:45:23,TEMP=21.6,BA=5.36,STAT.C,ExtBa=12.10
23/09/2022,16:10:29,TEMP=20.7,BA=5.32,STAT.A,ExtBa=12.10
23/09/2022,16:13:47,TEMP=20.4,BA=5.32,STAT.A,ExtBa=12.10
23/09/2022,16:15:56,TEMP=20.7,BA=5.32,STAT.A,ExtBa=12.10
23/09/2022,16:18:04,TEMP=20.6,BA=5.32,STAT.A,ExtBa=12.10
23/09/2022,16:21:35,TEMP=20.1,BA=5.32,STAT.B,ExtBa=12.10
23/09/2022,16:33:03,TEMP=19.9,BA=5.32,STAT.A,ExtBa=12.10
23/09/2022,16:36:23,TEMP=20.0,BA=5.32,STAT.D,ExtBa=12.10
23/09/2022,16:39:23,TEMP=20.2,BA=5.32,STAT.D,ExtBa=12.10
23/09/2022,16:42:04,TEMP=20.3,BA=5.32,STAT.A,ExtBa=12.10
23/09/2022,16:49:21,TEMP=20.1,BA=5.32,STAT.A,ExtBa=12.10
23/09/2022,16:55:22,TEMP=20.1,BA=5.36,STAT.A,ExtBa=12.10
23/09/2022,17:04:44,TEMP=20.3,BA=5.48,STAT.A,ExtBa=12.10